This is the latest recevied weather packets stored in our database for station/object N4DWK. If no packets are shown the sender has not sent any weather packets the latest 10 day(s).
| Time | Temp. | Humidity | Pressure | Rain* | Wind** | Luminosity | Snow |
|---|---|---|---|---|---|---|---|
| 1777723805 | 11.11° C | 76% | 1013.7 hPa | 0 mm | - | 39 W/m² | - |
| 1777723505 | 11.11° C | 77% | 1013.6 hPa | 0 mm | - | 44 W/m² | - |
| 1777723205 | 11.11° C | 76% | 1013.7 hPa | 0 mm | - | 39 W/m² | - |
| 1777722905 | 11.11° C | 77% | 1013.6 hPa | 0 mm | - | 39 W/m² | - |
| 1777722605 | 11.11° C | 77% | 1013.7 hPa | 0 mm | - | 39 W/m² | - |
| 1777722305 | 11.11° C | 77% | 1013.8 hPa | 0 mm | - | 32 W/m² | - |
| 1777722005 | 11.11° C | 78% | 1013.8 hPa | 0 mm | - | 32 W/m² | - |
| 1777721704 | 11.11° C | 79% | 1013.7 hPa | 0 mm | - | 28 W/m² | - |
| 1777721405 | 11.11° C | 78% | 1013.7 hPa | 0 mm | - | 21 W/m² | - |
| 1777721104 | 11.11° C | 79% | 1013.7 hPa | 0 mm | - | 21 W/m² | - |
| 1777720806 | 11.11° C | 78% | 1013.7 hPa | 0 mm | - | 18 W/m² | - |
| 1777720505 | 11.11° C | 79% | 1013.7 hPa | 0 mm | - | 14 W/m² | - |
| 1777720206 | 11.11° C | 79% | 1013.7 hPa | 0 mm | - | 12 W/m² | - |
| 1777719906 | 11.11° C | 79% | 1013.7 hPa | 0 mm | - | 11 W/m² | - |
| 1777719605 | 11.11° C | 79% | 1013.7 hPa | 0 mm | - | 11 W/m² | - |
| 1777719304 | 11.11° C | 80% | 1013.7 hPa | 0 mm | - | 11 W/m² | - |
| 1777719007 | 11.11° C | 80% | 1013.8 hPa | 0 mm | - | 9 W/m² | - |
| 1777718704 | 11.11° C | 80% | 1013.7 hPa | 0 mm | - | 5 W/m² | - |
| 1777718406 | 11.11° C | 80% | 1013.5 hPa | 0 mm | - | 5 W/m² | - |
| 1777718105 | 11.11° C | 80% | 1013.5 hPa | 0 mm | - | 5 W/m² | - |
| 1777717805 | 11.11° C | 80% | 1013.5 hPa | 0 mm | - | 0 W/m² | - |
| 1777717504 | 11.11° C | 81% | 1013.4 hPa | 0 mm | - | 0 W/m² | - |
| 1777717205 | 11.11° C | 82% | 1013.4 hPa | 0 mm | - | 0 W/m² | - |
| 1777716905 | 11.11° C | 82% | 1013.3 hPa | 0 mm | - | 0 W/m² | - |
| 1777716605 | 11.11° C | 83% | 1013.2 hPa | 0 mm | - | 0 W/m² | - |
* Rain latest hour (hover to see other rain measurements)
** Current wind speed in m/s (hover to see current wind gust speed)